Danbury, CT

4:06 PM EDT on September 25, 2017 (GMT -0400)
Danbury Municipal

Weather History for KDXR - December, 2000

Change the Weather History Date:

Saturday, December 2, 2000

  Actual Average Record
Temperature  
Mean Temperature 26 °F -  
Max Temperature 30 °F 44 °F 64 °F (1998)
Min Temperature 21 °F 27 °F 8 °F (1967)
Degree Days  
Heating Degree Days 40    
Moisture  
Dew Point 9 °F    
Average Humidity 50    
Maximum Humidity 65    
Minimum Humidity 35    
Precipitation  
Precipitation 0.00 in - - ()
Sea Level Pressure  
Sea Level Pressure 30.43 in    
Wind  
Wind Speed 8 mph (NNW)    
Max Wind Speed 17 mph    
Max Gust Speed 26 mph    
Visibility 10 miles    
Events      
Averages and records for this station are not official NWS values.
T = Trace of Precipitation, MM = Missing Value Source: NWS Daily Summary

Daily Weather History Graph

Daily Weather History Graph

Search for Another Location

Airport or City:

Trip Planner

Search our weather history database for the weather conditions in past years. The results will help you decide how hot, cold, wet, or windy it might be!

Date:

Astronomy

Dec. 02, 2000 Rise Set
Actual Time 7:01 AM EST 4:24 PM EST
Civil Twilight 6:31 AM EST 4:55 PM EST
Nautical Twilight 5:56 AM EST 5:30 PM EST
Astronomical Twilight 5:23 AM EST 6:03 PM EST
Moon 12:00 PM EST (12/2) 10:23 PM EST (12/2)
Length of Visible Light 10h 24m
Length of Day
9h 23m
Waxing Crescent, 36% of the Moon is Illuminated
Dec 2
Waxing Crescent
Dec 3
First Quarter
Dec 11
Full
Dec 17
Last Quarter
Dec 25
New

Hourly Weather History & Observations

Time (EST) Temp. Windchill Dew Point Humidity Pressure Visibility Wind Dir Wind Speed Gust Speed Precip Events Conditions
12:53 AM 27.0 °F 19.5 °F 12.9 °F 56% 30.31 in 10.0 mi NNW 6.9 mph - N/A   Mostly Cloudy
1:53 AM 26.1 °F 17.6 °F 12.0 °F 55% 30.33 in 10.0 mi NNW 8.1 mph - N/A   Clear
2:53 AM 25.0 °F 15.5 °F 12.0 °F 58% 30.34 in 10.0 mi NNW 9.2 mph - N/A   Clear
3:53 AM 24.1 °F 19.7 °F 12.0 °F 60% 30.33 in 10.0 mi NNW 3.5 mph - N/A   Clear
4:53 AM 24.1 °F 17.0 °F 10.9 °F 57% 30.35 in 10.0 mi NNW 5.8 mph - N/A   Clear
5:53 AM 23.0 °F 14.7 °F 12.0 °F 63% 30.38 in 10.0 mi NNW 6.9 mph - N/A   Clear
6:53 AM 21.0 °F - 10.9 °F 65% 30.39 in 10.0 mi Calm Calm - N/A   Clear
7:53 AM 24.1 °F 17.0 °F 10.9 °F 57% 30.41 in 10.0 mi North 5.8 mph - N/A   Clear
8:53 AM 25.0 °F 14.2 °F 9.0 °F 51% 30.43 in 10.0 mi North 11.5 mph - N/A   Clear
9:53 AM 26.1 °F 15.6 °F 9.0 °F 49% 30.44 in 10.0 mi NNW 11.5 mph - N/A   Clear
10:53 AM 28.0 °F 15.7 °F 8.1 °F 43% 30.44 in 10.0 mi NW 17.3 mph 24.2 mph N/A   Clear
11:53 AM 30.0 °F 20.0 °F 8.1 °F 40% 30.43 in 10.0 mi NW 12.7 mph - N/A   Clear
12:27 PM 30.2 °F 18.5 °F 6.8 °F 37% 30.40 in 10.0 mi North 17.3 mph 26.5 mph N/A   Clear
12:53 PM 30.9 °F 20.7 °F 6.1 °F 35% 30.42 in 10.0 mi NNW 13.8 mph 21.9 mph N/A   Clear
1:53 PM 30.9 °F 19.4 °F 6.1 °F 35% 30.41 in 10.0 mi NNW 17.3 mph 24.2 mph N/A   Clear
2:53 PM 30.9 °F 21.7 °F 6.1 °F 35% 30.43 in 10.0 mi North 11.5 mph 18.4 mph N/A   Clear
3:53 PM 30.9 °F 23.5 °F 6.1 °F 35% 30.45 in 10.0 mi NNW 8.1 mph - N/A   Clear
4:53 PM 28.0 °F 19.3 °F 7.0 °F 41% 30.47 in 10.0 mi North 9.2 mph - N/A   Clear
5:53 PM 26.1 °F 16.2 °F 8.1 °F 47% 30.49 in 10.0 mi North 10.4 mph - N/A   Clear
6:53 PM 25.0 °F 16.3 °F 8.1 °F 49% 30.51 in 10.0 mi North 8.1 mph - N/A   Clear
7:53 PM 25.0 °F 16.3 °F 8.1 °F 49% 30.52 in 10.0 mi NNW 8.1 mph - N/A   Clear
8:53 PM 23.0 °F 13.9 °F 9.0 °F 55% 30.54 in 10.0 mi North 8.1 mph - N/A   Clear
9:53 PM 23.0 °F 14.7 °F 10.0 °F 58% 30.54 in 10.0 mi NNW 6.9 mph - N/A   Clear
10:53 PM 21.0 °F 12.4 °F 10.0 °F 63% 30.56 in 10.0 mi North 6.9 mph - N/A   Clear
11:53 PM 21.0 °F 16.2 °F 10.9 °F 65% 30.55 in 10.0 mi Variable 3.5 mph - N/A   Clear